TimeAEST,TemperatureF,Dew PointF,Humidity,Sea Level PressureIn,VisibilityMPH,Wind Direction,Wind SpeedMPH,Gust SpeedMPH,PrecipitationIn,Events,Conditions,WindDirDegrees,DateUTC
12:00 AM,74,72,92,29.94,1,East,4.6,,,,Overcast,90,2014-01-09 14:00:00
12:00 AM,73.4,71.6,94,29.92,1.5,East,4.6,-,N/A,,Overcast,90,2014-01-09 14:00:00
1:00 AM,75.2,73.4,94,29.89,6.2,Calm,Calm,-,N/A,,Mostly Cloudy,0,2014-01-09 15:00:00
2:00 AM,75.2,73.4,94,29.89,6.2,Calm,Calm,-,N/A,,Mostly Cloudy,0,2014-01-09 16:00:00
3:00 AM,75,73,92,29.87,,SE,1.2,,,,,130,2014-01-09 17:00:00
3:00 AM,75.2,73.4,94,29.86,6.2,SE,1.2,-,N/A,,Scattered Clouds,130,2014-01-09 17:00:00
4:00 AM,75.2,73.4,94,29.86,6.2,SSE,6.9,-,N/A,,Overcast,150,2014-01-09 18:00:00
5:00 AM,73.4,73.4,100,29.89,1.2,North,4.6,-,N/A,,Overcast,350,2014-01-09 19:00:00
7:00 AM,73.4,73.4,100,29.92,-9999.0,ESE,9.2,-,N/A,,Overcast,110,2014-01-09 21:00:00
8:00 AM,75.2,73.4,94,29.92,5.0,ESE,6.9,-,N/A,,Overcast,120,2014-01-09 22:00:00
10:05 AM,73.4,73.4,100,29.95,4.3,SSW,4.6,-,N/A,,Overcast,200,2014-01-10 00:05:00
11:00 AM,75.2,73.4,94,29.95,3.7,East,8.1,-,N/A,,Overcast,80,2014-01-10 01:00:00
12:00 PM,76,74,93,29.94,4,ESE,16.1,,,,Overcast,120,2014-01-10 02:00:00
12:00 PM,75.2,73.4,94,29.92,3.7,ESE,16.1,-,N/A,,Overcast,120,2014-01-10 02:00:00
1:00 PM,75.2,73.4,94,29.92,-9999.0,East,13.8,-,N/A,,Overcast,80,2014-01-10 03:00:00
2:00 PM,75.2,73.4,94,29.92,3.7,NE,5.8,-,N/A,,Overcast,40,2014-01-10 04:00:00
3:00 PM,74,73,94,29.92,0,East,10.4,,,Rain,Light Rain,80,2014-01-10 05:00:00
3:00 PM,75.2,73.4,94,29.92,3.1,East,10.4,-,N/A,,Overcast,80,2014-01-10 05:00:00
4:00 PM,75.2,73.4,94,29.89,6.2,ESE,9.2,-,N/A,,Overcast,110,2014-01-10 06:00:00
5:05 PM,73.4,71.6,94,29.92,6.2,South,8.1,-,N/A,,Overcast,170,2014-01-10 07:05:00
6:00 PM,74,73,94,29.94,,South,8.1,,,,Overcast,180,2014-01-10 08:00:00
6:05 PM,73.4,73.4,100,29.92,6.2,South,8.1,-,N/A,,Overcast,190,2014-01-10 08:05:00
7:00 PM,73.4,73.4,100,29.95,6.2,South,8.1,-,N/A,,Mostly Cloudy,190,2014-01-10 09:00:00
8:02 PM,73.4,73.4,100,29.95,1.6,South,2.3,-,N/A,,Mostly Cloudy,180,2014-01-10 10:02:00
9:00 PM,74,72,94,29.97,,SSW,5.8,,,,,210,2014-01-10 11:00:00
9:00 PM,73.4,73.4,100,29.95,6.2,SSW,6.9,-,N/A,,Scattered Clouds,210,2014-01-10 11:00:00
10:00 PM,73.4,73.4,100,29.98,-9999.0,SE,11.5,-,N/A,,Overcast,130,2014-01-10 12:00:00
11:00 PM,73.4,73.4,100,29.95,1.0,South,8.1,-,N/A,,Overcast,170,2014-01-10 13:00:00